This is the latest recevied weather packets stored in our database for station/object JA0ZJX-13. If no packets are shown the sender has not sent any weather packets the latest 10 day(s).
| Time | Temp. | Humidity | Pressure | Rain* | Wind** | Luminosity | Snow |
|---|---|---|---|---|---|---|---|
| 1777548215 | 12.22° C | 78% | 1017.7 hPa | 0 mm | - | 0 W/m² | - |
| 1777547606 | 12.22° C | 77% | 1017.9 hPa | 0 mm | - | 0 W/m² | - |
| 1777547019 | 12.78° C | 77% | 1017.7 hPa | 0 mm | - | 0 W/m² | - |
| 1777546407 | 12.78° C | 76% | 1017.7 hPa | 0 mm | - | 0 W/m² | - |
| 1777545817 | 13.33° C | 76% | 1017.6 hPa | 0 mm | - | 0 W/m² | - |
| 1777545211 | 13.33° C | 76% | 1017.4 hPa | 0 mm | - | 0 W/m² | - |
| 1777544620 | 13.89° C | 76% | 1017.4 hPa | 0 mm | - | 0 W/m² | - |
| 1777544008 | 13.89° C | 74% | 1017.2 hPa | 0 mm | - | 0 W/m² | - |
| 1777543417 | 13.89° C | 75% | 1017.1 hPa | 0 mm | - | 0 W/m² | - |
| 1777542809 | 13.89° C | 75% | 1017.3 hPa | 0 mm | - | 0 W/m² | - |
| 1777542218 | 13.89° C | 75% | 1017.2 hPa | 0 mm | - | 0 W/m² | - |
| 1777541608 | 13.89° C | 76% | 1017.1 hPa | 0 mm | - | 7 W/m² | - |
| 1777541018 | 13.89° C | 76% | 1017 hPa | 0 mm | - | 12 W/m² | - |
| 1777540412 | 13.89° C | 75% | 1017 hPa | 0 mm | - | 30 W/m² | - |
| 1777539821 | 14.44° C | 75% | 1017.2 hPa | 0 mm | - | 28 W/m² | - |
| 1777539211 | 14.44° C | 74% | 1017 hPa | 0 mm | - | 39 W/m² | - |
| 1777538604 | 14.44° C | 73% | 1016.9 hPa | 0 mm | - | 42 W/m² | - |
| 1777538012 | 14.44° C | 73% | 1016.8 hPa | 0 mm | - | 60 W/m² | - |
| 1777537420 | 14.44° C | 73% | 1016.8 hPa | 0 mm | - | 69 W/m² | - |
| 1777536807 | 14.44° C | 73% | 1016.9 hPa | 0 mm | - | 83 W/m² | - |
| 1777536220 | 15° C | 73% | 1016.8 hPa | 0 mm | - | 95 W/m² | - |
| 1777535610 | 15° C | 73% | 1016.6 hPa | 0 mm | - | 98 W/m² | - |
| 1777535019 | 15° C | 72% | 1016.7 hPa | 0 mm | - | 113 W/m² | - |
| 1777534410 | 15° C | 72% | 1016.8 hPa | 0 mm | - | 142 W/m² | - |
| 1777533822 | 15° C | 72% | 1016.7 hPa | 0 mm | - | 181 W/m² | - |
* Rain latest hour (hover to see other rain measurements)
** Current wind speed in m/s (hover to see current wind gust speed)